Regional Weather Roundup
Issued by NWS

Home | Current Version | Previous Version | Graphics & Text | Print | Product List | Glossary On
Versions: 1 2 3 4 5 6 7 8 9 10 11 12 13 14 15 16 17 18 19 20 21 22 23 24 25 26 27 28 29 30 31 32 33 34 35 36 37 38 39 40 41 42 43 44 45 46 47 48 49 50
689
ASUS43 KFSD 160102
RWRSD

WEATHER ROUNDUP FOR SOUTH DAKOTA
NATIONAL WEATHER SERVICE SIOUX FALLS SD
700 PM CST MON JAN 15 2018

NOTE: "FAIR" INDICATES FEW OR NO CLOUDS BELOW 12,000 FEET WITH NO
SIGNIFICANT WEATHER AND/OR OBSTRUCTIONS TO VISIBILITY.


SDZ001>005-009-010-012>017-160200-
NORTHWEST AND NORTH CENTRAL SOUTH DAKOTA

CITY           SKY/WX    TMP DP  RH WIND       PRES   REMARKS
BUFFALO          N/A     -9 -16  71 NW8       30.61F WCI -25
FAITH            N/A    -10 -16  74 NW9       30.75R WCI -27
MOBRIDGE       MOCLDY    -5 -15  62 N18       30.76R WCI -28
$$

SDZ012>016-024>037-041>051-057-063-072>074-160200-
SOUTHWEST AND SOUTH CENTRAL SOUTH DAKOTA

CITY           SKY/WX    TMP DP  RH WIND       PRES   REMARKS
RAPID CTY ARPT MOCLDY    -3 -10  72 N15       30.68R WCI -23
PIERRE         PTCLDY    -2 -12  62 NW18      30.77R WCI -24
CUSTER         MOCLDY    -3  -8  79 VRB3      30.43R
ELLSWORTH AFB  MOCLDY    -4 -11  74 W12       30.67R WCI -23
PHILIP         CLEAR     -4 -10  75 NW14      30.78R WCI -24
PINE RIDGE     PTCLDY    -2  -8  76 N7        30.67R WCI -15
SPEARFISH        N/A     -6 -11  77 W5        30.62S WCI -17
WINNER         MOCLDY     2  -9  60 NW24G35   30.71R WCI -21
$$

SDZ004>011-016>023-039-040-160200-
NORTHEAST SOUTH DAKOTA

CITY           SKY/WX    TMP DP  RH WIND       PRES   REMARKS
ABERDEEN       MOCLDY    -5 -13  68 N17       30.77S WCI -27
WATERTOWN      CLOUDY    -7 -13  75 NW22G31   30.62R WCI -32
BROOKINGS      CLOUDY    -7 -14  71 N20       30.60S WCI -31
SISSETON         N/A     -6 -11  79 N20       30.72R WCI -30
$$

SDZ017-020-022-023-036>040-048>070-160200-
SOUTHEAST SOUTH DAKOTA

CITY           SKY/WX    TMP DP  RH WIND       PRES   REMARKS
SIOUX FALLS    PTCLDY    -5 -12  72 NW20G29   30.62R WCI -28
HURON          CLOUDY    -3 -11  68 N24G31    30.73R WCI -28
CHAMBERLAIN    PTCLDY     0  -9  65 NW18G24   30.75R WCI -21
MITCHELL       CLOUDY    -1  -9  68 NW21      30.73R WCI -24
YANKTON        CLEAR     -3  -9  75 NW22      30.68R WCI -27
$$

ABBREVIATIONS USED IN REMARKS
   TC - TEMPERATURE IN CELSIUS
  WCI - WIND CHILL INDEX
   HX - HEAT INDEX
  VSB - VISIBILITY





USA.gov is the U.S. government's official web portal to all federal, state and local government web resources and services.